Location: Newark
(34.9500°N, 139.9667°E)
Time: 18:25:03
(UTC+00:00)

A-11 Canister half - All Passes

Search period start: 10 December 2019 00:00
Search period end: 20 December 2019 00:00
Orbit: 1526 x 1683 km, 47.3° (Epoch: 10 December)

Date Brightness Start Highest point End Pass type
(mag) Time Alt. Az. Time Alt. Az. Time Alt. Az.
10 Dec - 01:24:29 10° NW 01:34:17 51° NNE 01:43:48 10° E daylight
10 Dec - 03:29:58 10° WNW 03:39:55 72° SW 03:49:30 10° SE daylight
10 Dec - 05:37:35 10° W 05:43:41 19° WSW 05:49:41 10° SSW daylight
10 Dec - 18:44:31 10° SSW 18:53:49 44° SE 19:03:12 10° ENE visible
10 Dec - 20:48:36 10° WSW 20:58:41 70° NNW 21:08:50 10° NE visible
10 Dec - 22:55:54 10° WNW 23:05:23 42° N 23:14:45 10° ENE daylight
11 Dec - 01:02:46 10° NW 01:12:33 50° NNE 01:22:04 10° E daylight
11 Dec - 03:08:17 10° WNW 03:18:17 75° SW 03:27:56 10° SE daylight
11 Dec - 05:15:37 10° W 05:22:07 20° WSW 05:28:32 10° SSW daylight
11 Dec - 18:23:02 10° SSW 18:32:12 42° SE 18:41:28 10° ENE visible
11 Dec - 20:26:53 10° WSW 20:36:59 72° NNW 20:47:10 10° NE visible
11 Dec - 22:34:07 10° WNW 22:43:37 42° N 22:53:01 10° ENE daylight
12 Dec - 00:41:04 10° NW 00:50:49 49° NNE 01:00:20 10° E daylight
12 Dec - 02:46:36 10° WNW 02:56:38 79° SW 03:06:20 10° SE daylight
12 Dec - 04:53:41 10° W 05:00:33 22° SW 05:07:19 10° S daylight
12 Dec - 18:01:35 10° SSW 18:10:35 40° SE 18:19:42 10° ENE visible
12 Dec - 20:05:11 10° WSW 20:15:18 75° NNW 20:25:30 10° NE visible
12 Dec - 22:12:20 10° WNW 22:21:51 42° N 22:31:19 10° ENE daylight
13 Dec - 00:19:20 10° NW 00:29:05 48° NNE 00:38:35 10° E daylight
13 Dec - 02:24:54 10° NW 02:35:00 82° SW 02:44:44 10° SE daylight
13 Dec - 04:31:46 10° WNW 04:39:00 23° SW 04:46:04 10° S daylight
13 Dec - 17:40:09 10° SSW 17:48:58 37° SE 17:57:56 10° ENE visible
13 Dec - 19:43:30 10° WSW 19:53:36 77° NNW 20:03:49 10° NE visible
13 Dec - 21:50:32 10° W 22:00:05 43° N 22:09:35 10° ENE daylight
13 Dec - 23:57:37 10° WNW 00:07:20 47° NNE 00:16:50 10° E daylight
14 Dec - 02:03:12 10° NW 02:13:20 85° SW 02:23:08 10° SE daylight
14 Dec - 04:09:53 10° WNW 04:17:26 25° SW 04:24:48 10° S daylight
14 Dec - 17:18:43 10° S 17:27:22 35° SE 17:36:09 10° ENE visible
14 Dec - 19:21:49 10° WSW 19:31:54 80° NNW 19:42:09 10° NE visible
14 Dec - 21:28:46 10° W 21:38:19 44° N 21:47:51 10° ENE daylight
14 Dec - 23:35:54 10° WNW 23:45:35 46° NNE 23:55:05 10° E daylight
15 Dec - 01:41:31 10° NW 01:51:41 89° SW 02:01:30 10° SE daylight
15 Dec - 03:48:02 10° WNW 03:55:50 27° SW 04:03:29 10° S daylight
15 Dec - 16:57:18 10° S 17:05:46 33° SE 17:14:22 10° ENE visible
15 Dec - 19:00:09 10° WSW 19:10:13 83° NW 19:20:28 10° NE visible
15 Dec - 21:07:00 10° W 21:16:34 44° NNW 21:26:09 10° ENE visible
15 Dec - 23:14:11 10° WNW 23:23:50 45° NNE 23:33:19 10° E daylight
16 Dec - 01:19:50 10° NW 01:30:00 88° NNE 01:39:53 10° SE daylight
16 Dec - 03:26:11 10° WNW 03:34:16 29° SW 03:42:09 10° S daylight
16 Dec - 16:35:55 10° S 16:44:11 31° SE 16:52:34 10° ENE visible
16 Dec - 18:38:29 10° SW 18:48:32 86° NW 18:58:47 10° NE visible
16 Dec - 20:45:13 10° W 20:54:48 45° NNW 21:04:25 10° ENE visible
16 Dec - 22:52:27 10° WNW 23:02:05 45° NNE 23:11:35 10° E daylight
17 Dec - 00:58:09 10° NW 01:08:21 85° NE 01:18:14 10° SE daylight
17 Dec - 03:04:22 10° WNW 03:12:41 31° SW 03:20:48 10° S daylight
17 Dec - 16:14:33 10° S 16:22:35 29° SE 16:30:44 10° ENE visible
17 Dec - 18:16:50 10° SW 18:26:51 89° NW 18:37:06 10° NE visible
17 Dec - 20:23:26 10° W 20:33:03 46° NNW 20:42:43 10° ENE visible
17 Dec - 22:30:43 10° WNW 22:40:20 44° NNE 22:49:48 10° E daylight
18 Dec - 00:36:28 10° NW 00:46:40 82° NE 00:56:35 10° ESE daylight
18 Dec - 02:42:34 10° WNW 02:51:05 33° SW 02:59:25 10° S daylight
18 Dec - 15:53:13 10° S 16:00:59 27° SE 16:08:54 10° ENE visible
18 Dec - 17:55:12 10° SW 18:05:12 88° SE 18:15:25 10° NE visible
18 Dec - 20:01:40 10° W 20:11:17 47° NNW 20:21:00 10° ENE visible
18 Dec - 22:08:59 10° WNW 22:18:34 43° N 22:28:02 10° E daylight
19 Dec - 00:14:46 10° NW 00:24:59 79° NNE 00:34:56 10° ESE daylight
19 Dec - 02:20:46 10° WNW 02:29:30 35° SW 02:38:02 10° S daylight
19 Dec - 15:31:54 10° S 15:39:24 25° SE 15:47:02 10° ENE visible
19 Dec - 17:33:34 10° SW 17:43:32 85° SE 17:53:44 10° NE visible
19 Dec - 19:39:54 10° W 19:49:33 47° NNW 19:59:17 10° ENE visible
19 Dec - 21:47:16 10° WNW 21:56:48 43° N 22:06:17 10° E daylight
